Simultaneous Nadir Overpasses (SNOs) Predictions

Prediction of SNOs between AQUA and GOES-15 Satellite Orbit:

Table of predicted SNOs for the next 14.0 days since TLE Epoch: 4/4/2025
Index Date Time (AQUA) AQUA Lat,Lon GOES-15 Lat,Lon Distance(km) Time Diff (sec)
1 04/06/2025 10:22:41 0.32, 63.23 -0.09, 61.33 216.50 80
2 04/06/2025 22:41:57 0.68, 58.58 0.09, 61.29 308.48 80
3 04/08/2025 22:22:03 -0.37, 63.45 0.09, 61.30 244.89 80
4 04/09/2025 10:41:27 -0.64, 58.76 -0.09, 61.35 294.07 80
5 04/11/2025 10:21:31 0.40, 63.64 -0.09, 61.36 259.71 80
6 04/11/2025 22:40:47 0.56, 58.98 0.08, 61.32 265.42 80
7 04/13/2025 22:20:49 -0.45, 63.87 0.08, 61.33 288.73 80
8 04/14/2025 10:40:12 -0.56, 59.19 -0.07, 61.38 249.71 80
9 04/16/2025 10:20:13 0.50, 64.08 -0.08, 61.41 304.12 80
10 04/16/2025 22:39:27 0.47, 59.43 0.06, 61.38 221.55 80
